[[{"header":{"parameterUnit":"m.s-1","parameterCategory":2,"la1":30.2991,"la2":30.254,"lo1":-89.0895,"lo2":-89.0444,"dy":0.0017,"dx":0.0017,"nx":28,"ny":28,"refTime":"2025-06-07T03:00:00:Z","depth":"0","parameterNumber":2,"parameterNumberName":"U-component_of_CURRENTS"},"data":[0,0,0,0,0,0,0,0,0,0,0,0,0,0,0,0,0,0,0,0,0,0,0,0,0,0,0,0,0,0,0,0,0,0,0,0,0,0,0,0,0,0,0,0,0,0,0,0,0,0,0,0,0,0,0,0,0,0,0.3962,0.3964,0,0.4086,0.4087,0.4088,0.4041,0.4039,0.4037,0.4035,0.4048,0.405,0.4053,0,0,0,0,0,0,0,0,0,0,0,0,0,0.3616,0.3622,0.3961,0.3964,0.3966,0.4086,0.4087,0.4088,0.4041,0.4039,0.4036,0.4034,0.4048,0.405,0.4053,0,0,0,0,0,0,0,0,0,0,0,0,0,0.3747,0.3624,0.3961,0.3964,0.3966,0.4086,0.4087,0.4088,0.4042,0.4039,0.4036,0.4033,0.4047,0.405,0.4053,0.4135,0,0,0.4064,0.4065,0,0,0,0,0,0,0,0,0.374,0.3759,0.3961,0.3964,0.3967,0.4053,0.397,0.4101,0.4043,0.4004,0.4035,0.4031,0.4048,0.4051,0.407,0.4136,0.4137,0.4064,0.4066,0.4067,0.4068,0,0,0,0,0,0,0,0.3731,0.3753,0.4002,0.3964,0.3968,0.3937,0.3951,0.3994,0.4032,0.4007,0.4006,0.4035,0.4046,0.4067,0.407,0.4137,0.4064,0.4067,0.4069,0.407,0.4316,0.4321,0,0,0,0,0,0,0.3742,0.3746,0.3998,0.4007,0.3853,0.3946,0.3962,0.4021,0.4034,0.4037,0.4038,0.4033,0.4063,0.4066,0.407,0.4175,0.4067,0.4071,0.4072,0.4312,0.4317,0.4322,0,0,0,0,0,0,0.3735,0.3765,0.3993,0.3883,0.3911,0.3957,0.4022,0.4025,0.4051,0.4061,0.4058,0.406,0.406,0.4065,0.4132,0.4174,0.4072,0.4075,0.4306,0.4313,0.432,0.438,0,0,0,0,0,0,0.3725,0.3762,0.3805,0.3886,0.3918,0.4083,0.4026,0.403,0.4077,0.4071,0.408,0.4078,0.4058,0.4127,0.4135,0.4177,0.4078,0.4301,0.431,0.4318,0.4372,0.4388,0.4401,0,0,0,0,0,0.3712,0.3822,0.3807,0.3838,0.3979,0.4087,0.4101,0.4113,0.4082,0.4118,0.4123,0.4077,0.4186,0.4134,0.4142,0.4185,0.4297,0.4307,0.4317,0.4366,0.4385,0.4401,0,0,0,0,0,0,0.3731,0.3831,0.3815,0.3957,0.4011,0.4082,0.4134,0.4133,0.4169,0.4155,0.4136,0.4138,0.422,0.4215,0.4157,0.429,0.4235,0.4248,0.427,0.4288,0.4302,0.4271,0.4081,0,0,0,0,0,0.3747,0.3825,0.3908,0.4011,0.4045,0.4081,0.4125,0.4133,0.4181,0.4191,0.4196,0.4219,0.4276,0.4285,0.4335,0.4402,0.439,0.4441,0.4456,0.4467,0.4455,0.4509,0.4525,0.4355,0.4355,0.4355,0,0,0.3782,0.3847,0.3891,0.4013,0.4051,0.4118,0.4099,0.4183,0.4217,0.4192,0.4241,0.4281,0.4315,0.4393,0.4427,0.4381,0.4515,0.448,0.4489,0.447,0.4521,0.4537,0.4551,0.4362,0.4361,0.436,0,0,0.3889,0.3946,0.4031,0.4074,0.4149,0.4171,0.4198,0.4268,0.4274,0.4345,0.4343,0.4405,0.4471,0.4499,0.4523,0.4656,0.4608,0.4684,0.4702,0.4757,0.4769,0.478,0.4784,0.4794,0.4667,0.4667,0.4667,0,0.3912,0.4032,0.4074,0.4152,0.4182,0.4195,0.4263,0.4296,0.4368,0.4376,0.4366,0.4487,0.4518,0.4603,0.4653,0.4682,0.4689,0.462,0.4769,0.4779,0.4789,0.479,0.4801,0.4671,0.4671,0.4671,0.467,0,0.4071,0.4137,0.4199,0.4268,0.4311,0.4384,0.4415,0.4443,0.4443,0.4459,0.4543,0.46,0.4649,0.4698,0.4713,0.4815,0.479,0.4792,0.4704,0.4808,0.4805,0.4815,0.4677,0.4676,0.4675,0.4674,0,0,0.4173,0.4281,0.4289,0.4287,0.4364,0.4402,0.4461,0.4508,0.4507,0.4576,0.4598,0.4728,0.4729,0.4762,0.4799,0.4851,0.4943,0.4851,0.4852,0.4817,0.5032,0.4741,0.4723,0.497,0.4972,0.4974,0.4997,0,0.4258,0.4378,0.442,0.4475,0.4517,0.4513,0.4546,0.4572,0.4587,0.4611,0.4669,0.472,0.4761,0.4782,0.4854,0.492,0.4974,0.4934,0.4967,0.4967,0.4665,0.4727,0.4483,0.4459,0.5006,0.5008,0.5009,0,0.4384,0.4426,0.4512,0.4505,0.4522,0.455,0.4539,0.4574,0.4611,0.4621,0.4676,0.4709,0.4802,0.4823,0.4958,0.493,0.4994,0.5041,0.5042,0.4747,0.4694,0.445,0.4455,0.4363,0.5024,0.5023,0.5022,0,0.4387,0.4469,0.4511,0.4523,0.4552,0.4553,0.4553,0.4575,0.4575,0.4619,0.4618,0.4722,0.4745,0.4868,0.4927,0.4969,0.5038,0.5102,0.4902,0.4882,0.4661,0.4614,0.4539,0.5215,0.5215,0.5215,0.5215,0,0.4453,0.4472,0.45,0.4514,0.4509,0.4527,0.4517,0.4529,0.4547,0.4537,0.4612,0.4615,0.4763,0.48,0.4911,0.4868,0.5016,0.4891,0.4866,0.4674,0.4629,0.4525,0.4549,0.5216,0.5216,0.5215,0.5215,0,0.4468,0.4503,0.4523,0.4529,0.4518,0.4506,0.4482,0.4461,0.4485,0.4477,0.4488,0.4539,0.4536,0.4617,0.4755,0.4769,0.4653,0.4774,0.4487,0.4423,0.4113,0.4151,0.3858,0.3783,0.4575,0.4567,0.4561,0,0.4502,0.4518,0.4512,0.4488,0.449,0.4464,0.4431,0.4437,0.4412,0.4416,0.44,0.4379,0.4303,0.4302,0.4309,0.433,0.435,0.4139,0.4172,0.402,0.4051,0.3939,0.3896,0.3942,0.3931,0.3923,0.3916,0,0.4524,0.4518,0.4517,0.4454,0.4412,0.4366,0.4321,0.4282,0.4271,0.4241,0.4143,0.4074,0.3983,0.3803,0.376,0.3806,0.3881,0.3954,0.3918,0.3613,0.3373,0.3311,0.399,0.3839,0.3846,0.3852,0.3856,0.3859,0.4519,0.4493,0.4451,0.4359,0.4317,0.4204,0.4071,0.4024,0.3921,0.3729,0.3851,0.3593,0.3463,0.3314,0.3316,0.3141,0.33,0.3122,0.3206,0.3122,0.2937,0.337,0.3096,0.3099,0.3102,0.3104,0.3107,0,0.4427,0.4376,0.4329,0.4181,0.4041,0.4062,0.3919,0.3718,0.3479,0.3387,0.3229,0.2946,0.2734,0.2668,0.2552,0.2465,0.2451,0.2427,0.2327,0.2358,0.285,0.2707,0.2183,0.2183,0.2183,0.2184,0.2184,0.2184,0.4384,0.4263,0.4186,0.3894,0.3781,0.3475,0.3328,0.309,0.2933,0.2544,0.2298,0.224,0.2255,0.2161,0.2036,0.2012,0.1988,0.1757,0.1919,0.2386,0.2462,0.2534,0.2403,0.1824,0.1823,0.1274,0.127,0.1267]},{"header":{"parameterUnit":"m.s-1","parameterCategory":2,"la1":30.2991,"la2":30.254,"lo1":-89.0895,"lo2":-89.0444,"dy":0.0017,"dx":0.0017,"nx":28,"ny":28,"refTime":"2025-06-07T03:00:00:Z","depth":"0","parameterNumber":3,"parameterNumberName":"V-component_of_CURRENTS"},"data":[0,0,0,0,0,0,0,0,0,0,0,0,0,0,0,0,0,0,0,0,0,0,0,0,0,0,0,0,0,0,0,0,0,0,0,0,0,0,0,0,0,0,0,0,0,0,0,0,0,0,0,0,0,0,0,0,0,0,0.0389,0.039,0,0.0543,0.0544,0.0546,0.0585,0.0584,0.0583,0.0582,0.0693,0.0697,0.0701,0,0,0,0,0,0,0,0,0,0,0,0,0,0.0207,0.0209,0.0389,0.0391,0.0392,0.0542,0.0545,0.0547,0.0586,0.0584,0.0583,0.0582,0.0692,0.0696,0.0701,0,0,0,0,0,0,0,0,0,0,0,0,0,0.0316,0.021,0.0388,0.0429,0.0434,0.0542,0.0545,0.0547,0.0586,0.0584,0.0583,0.0581,0.069,0.0696,0.0702,0.0769,0,0,0.072,0.0722,0,0,0,0,0,0,0,0,0.031,0.0323,0.0421,0.0427,0.0433,0.0543,0.0521,0.0619,0.0586,0.0529,0.0582,0.058,0.0639,0.0649,0.0683,0.0774,0.0779,0.072,0.0724,0.0726,0.0728,0,0,0,0,0,0,0,0.0302,0.0317,0.045,0.0424,0.043,0.0467,0.048,0.054,0.0591,0.0534,0.0537,0.0553,0.0642,0.0678,0.0686,0.0781,0.072,0.0725,0.0729,0.0731,0.0999,0.1002,0,0,0,0,0,0,0.028,0.031,0.0445,0.0455,0.0365,0.0471,0.0486,0.0509,0.0591,0.0602,0.0555,0.0555,0.0668,0.0679,0.069,0.0842,0.0726,0.0732,0.0735,0.0995,0.1,0.1003,0,0,0,0,0,0,0.0275,0.0291,0.0439,0.0384,0.0406,0.0475,0.0502,0.0513,0.055,0.0607,0.0617,0.0579,0.0668,0.0682,0.0785,0.0843,0.0734,0.074,0.0991,0.0997,0.1002,0.1101,0,0,0,0,0,0,0.027,0.0289,0.0302,0.0383,0.0408,0.0516,0.0504,0.0517,0.0562,0.0564,0.0632,0.0641,0.0667,0.0777,0.0791,0.0849,0.0744,0.0986,0.0993,0.1,0.1093,0.1109,0.1123,0,0,0,0,0,0.0263,0.0301,0.0302,0.0318,0.0423,0.0518,0.0536,0.0579,0.0565,0.0601,0.0662,0.0638,0.0828,0.0785,0.0801,0.0862,0.0983,0.0992,0.0999,0.1087,0.1106,0.1123,0,0,0,0,0,0,0.0239,0.0311,0.0313,0.0372,0.0438,0.0524,0.0565,0.0584,0.0661,0.0659,0.0697,0.0713,0.0824,0.0834,0.0785,0.096,0.0897,0.0909,0.0958,0.0977,0.0991,0.0982,0.0749,0,0,0,0,0,0.0235,0.0277,0.0349,0.0397,0.0428,0.0491,0.0532,0.0563,0.0637,0.0668,0.0722,0.0786,0.0873,0.0914,0.0984,0.1083,0.1042,0.113,0.1145,0.1157,0.1163,0.1162,0.1175,0.103,0.103,0.103,0,0,0.0236,0.0283,0.0305,0.0394,0.0445,0.0527,0.0514,0.0586,0.0664,0.0669,0.0792,0.0842,0.0913,0.1035,0.1082,0.1048,0.1176,0.1167,0.1177,0.1176,0.1171,0.1185,0.1197,0.1036,0.1035,0.1034,0,0,0.0282,0.0304,0.036,0.0419,0.0499,0.0551,0.0569,0.0662,0.071,0.083,0.0862,0.0953,0.107,0.1148,0.1198,0.1335,0.1255,0.1345,0.1415,0.1415,0.1425,0.1434,0.138,0.1383,0.135,0.135,0.1351,0,0.0278,0.0365,0.0393,0.0472,0.0533,0.0563,0.0652,0.0719,0.0837,0.0898,0.0878,0.1085,0.1133,0.1299,0.1349,0.1369,0.1323,0.1339,0.143,0.1438,0.1445,0.1387,0.1389,0.1356,0.1356,0.1355,0.1354,0,0.0377,0.0445,0.0489,0.0594,0.0661,0.0744,0.0829,0.0904,0.095,0.1018,0.1171,0.1249,0.1363,0.14,0.1422,0.1526,0.1459,0.1444,0.1372,0.1465,0.1399,0.1399,0.1364,0.1362,0.1361,0.1359,0,0,0.0391,0.0529,0.0547,0.0614,0.0733,0.0805,0.0931,0.1069,0.1158,0.1248,0.1372,0.1522,0.1526,0.1583,0.1615,0.1625,0.1637,0.1554,0.1551,0.1478,0.1581,0.1501,0.1492,0.1618,0.162,0.1621,0.1505,0,0.0468,0.0619,0.0676,0.083,0.092,0.0986,0.1106,0.122,0.131,0.1431,0.1506,0.1626,0.1608,0.1657,0.1674,0.166,0.1645,0.1666,0.1522,0.1518,0.1417,0.1495,0.1437,0.1327,0.1505,0.1505,0.1505,0,0.0565,0.0655,0.0806,0.0961,0.1005,0.1093,0.127,0.1379,0.1534,0.1597,0.1702,0.1743,0.1829,0.1767,0.1758,0.176,0.1678,0.1634,0.1628,0.1518,0.144,0.1271,0.132,0.1284,0.1504,0.1504,0.1504,0,0.0589,0.0756,0.0876,0.093,0.1101,0.1179,0.127,0.143,0.1536,0.1685,0.1751,0.1848,0.1877,0.1829,0.1743,0.1742,0.1668,0.1655,0.15,0.149,0.1399,0.138,0.138,0.1614,0.1615,0.1615,0.1615,0,0.0676,0.0774,0.0888,0.096,0.1106,0.1201,0.1364,0.1469,0.1616,0.174,0.1815,0.1898,0.1883,0.185,0.1761,0.1624,0.1673,0.1519,0.1472,0.1431,0.1417,0.1345,0.1338,0.1611,0.1612,0.1612,0.1613,0,0.0715,0.0786,0.0927,0.1078,0.1126,0.1226,0.1398,0.1517,0.1628,0.1781,0.1821,0.1918,0.1866,0.1809,0.1712,0.1627,0.1477,0.1441,0.1368,0.1317,0.1162,0.1161,0.1095,0.1105,0.1276,0.1273,0.1271,0,0.076,0.0834,0.0985,0.1058,0.113,0.127,0.1378,0.1518,0.1632,0.1789,0.1858,0.1859,0.1874,0.17,0.1545,0.1365,0.1354,0.1196,0.1215,0.1156,0.1122,0.1139,0.1157,0.1116,0.1112,0.111,0.1108,0,0.0845,0.0881,0.0983,0.1116,0.1225,0.1356,0.1498,0.1575,0.1731,0.1828,0.1916,0.1925,0.1766,0.1583,0.1341,0.1225,0.1184,0.1136,0.1115,0.1037,0.1017,0.1002,0.1155,0.1085,0.1087,0.1089,0.109,0.1091,0.0892,0.0958,0.1064,0.1191,0.1309,0.1424,0.1502,0.163,0.1758,0.1867,0.1898,0.1883,0.1662,0.1334,0.1174,0.0901,0.0987,0.0844,0.0853,0.0879,0.0896,0.0974,0.0837,0.0837,0.0838,0.0839,0.0839,0,0.0948,0.1014,0.1138,0.1272,0.1381,0.1432,0.1578,0.1629,0.1727,0.1814,0.1853,0.1713,0.1426,0.1174,0.0812,0.0664,0.0668,0.0612,0.0649,0.0688,0.0774,0.0776,0.0571,0.0572,0.0572,0.0572,0.0572,0.0572,0.0985,0.1083,0.1137,0.13,0.1381,0.1469,0.1521,0.159,0.1656,0.1675,0.165,0.1654,0.1528,0.0937,0.0595,0.0521,0.0529,0.0448,0.0516,0.0581,0.0606,0.0629,0.0631,0.04,0.0399,0.0441,0.0441,0.0441]}],[{"header":{"parameterUnit":"m.s-1","parameterCategory":2,"la1":30.2991,"la2":30.254,"lo1":-89.0895,"lo2":-89.0444,"dy":0.0017,"dx":0.0017,"nx":28,"ny":28,"refTime":"2025-06-07T03:00:00:Z","depth":"2","parameterNumber":2,"parameterNumberName":"U-component_of_CURRENTS"},"data":[0,0,0,0,0,0,0,0,0,0,0,0,0,0,0,0,0,0,0,0,0,0,0,0,0,0,0,0,0,0,0,0,0,0,0,0,0,0,0,0,0,0,0,0,0,0,0,0,0,0,0,0,0,0,0,0,0,0,0.2537,0.2539,0,0.2768,0.2772,0.2775,0.2911,0.2911,0.291,0.291,0.315,0.3157,0.3163,0,0,0,0,0,0,0,0,0,0,0,0,0,0.2426,0.2427,0.2537,0.2539,0.2541,0.2768,0.2772,0.2776,0.2911,0.291,0.291,0.291,0.3148,0.3156,0.3164,0,0,0,0,0,0,0,0,0,0,0,0,0,0.2556,0.2427,0.2537,0.2628,0.2638,0.2767,0.2772,0.2777,0.2911,0.291,0.291,0.2909,0.3145,0.3155,0.3165,0.3238,0,0,0.3196,0.32,0,0,0,0,0,0,0,0,0.2548,0.2561,0.2613,0.2622,0.2633,0.2801,0.282,0.2928,0.2911,0.2818,0.291,0.2909,0.3028,0.3048,0.3107,0.3249,0.3259,0.3197,0.3203,0.3207,0.321,0,0,0,0,0,0,0,0.2539,0.2553,0.2639,0.2615,0.2627,0.273,0.2747,0.2843,0.2931,0.2826,0.2834,0.2844,0.3035,0.3097,0.3113,0.3263,0.3196,0.3205,0.3211,0.3215,0.372,0.3727,0,0,0,0,0,0,0.248,0.2543,0.2631,0.2645,0.2577,0.2731,0.2751,0.2756,0.293,0.2953,0.2844,0.2849,0.308,0.3101,0.3122,0.3359,0.3207,0.3216,0.3222,0.3713,0.3721,0.3729,0,0,0,0,0,0,0.2476,0.2485,0.2622,0.2592,0.2615,0.2731,0.2738,0.2761,0.2882,0.2942,0.2967,0.2945,0.308,0.3108,0.3316,0.3363,0.3221,0.323,0.3704,0.3715,0.3725,0.3742,0,0,0,0,0,0,0.2472,0.2483,0.2477,0.2587,0.2614,0.2756,0.2738,0.2765,0.2879,0.2891,0.3036,0.3055,0.3082,0.3301,0.3326,0.3375,0.3238,0.3695,0.3709,0.3722,0.3733,0.3753,0.377,0,0,0,0,0,0.2467,0.2523,0.2476,0.2486,0.2599,0.2759,0.2788,0.2873,0.2885,0.2976,0.3097,0.3053,0.3405,0.3317,0.3344,0.3395,0.3688,0.3705,0.3721,0.3724,0.3749,0.3769,0,0,0,0,0,0,0.2537,0.2543,0.2495,0.2558,0.2647,0.278,0.2864,0.2914,0.3082,0.3098,0.316,0.3192,0.3399,0.3429,0.333,0.3598,0.3535,0.3557,0.3528,0.3552,0.357,0.3541,0.3246,0,0,0,0,0,0.2515,0.2546,0.2575,0.265,0.2667,0.2762,0.2836,0.2899,0.3041,0.3116,0.3212,0.3336,0.3483,0.3541,0.368,0.3815,0.3792,0.3875,0.3893,0.3907,0.3915,0.3956,0.3974,0.3784,0.3784,0.3783,0,0,0.2585,0.2581,0.2611,0.2662,0.2724,0.2805,0.2815,0.2961,0.3056,0.3113,0.3307,0.3428,0.3554,0.3728,0.3814,0.3749,0.3952,0.3928,0.3938,0.3938,0.3974,0.3991,0.4006,0.3795,0.3793,0.3791,0,0,0.2709,0.2703,0.2721,0.2786,0.2847,0.2911,0.2957,0.3089,0.3164,0.3354,0.3433,0.3589,0.3796,0.3878,0.3947,0.4159,0.408,0.4214,0.4234,0.4273,0.4285,0.4296,0.4253,0.426,0.418,0.418,0.418,0,0.2723,0.2778,0.2785,0.2818,0.288,0.2956,0.303,0.3138,0.3343,0.3406,0.3428,0.3761,0.3855,0.404,0.4127,0.4185,0.418,0.411,0.4283,0.4294,0.4304,0.4257,0.4264,0.4183,0.4182,0.4182,0.4182,0,0.285,0.2888,0.2947,0.2963,0.3049,0.3174,0.3246,0.3367,0.3451,0.3532,0.3753,0.3899,0.4075,0.4135,0.42,0.4346,0.4309,0.4315,0.4183,0.4321,0.4267,0.4273,0.4187,0.4186,0.4185,0.4184,0,0,0.2866,0.297,0.2991,0.301,0.3131,0.3224,0.3366,0.3496,0.3583,0.3752,0.3865,0.4122,0.4175,0.4266,0.4347,0.4378,0.444,0.4383,0.4384,0.4264,0.4478,0.4073,0.4039,0.447,0.4473,0.4475,0.4391,0,0.2926,0.3011,0.3059,0.3213,0.3271,0.336,0.3483,0.3619,0.3732,0.3869,0.3986,0.4163,0.4227,0.4314,0.4372,0.4456,0.4469,0.4459,0.4431,0.4429,0.3989,0.4038,0.3865,0.3743,0.4396,0.4397,0.4398,0,0.3014,0.3053,0.3175,0.329,0.3313,0.3427,0.3597,0.3719,0.3893,0.3963,0.4114,0.4214,0.4362,0.4373,0.4497,0.4492,0.451,0.4521,0.4517,0.4135,0.4035,0.3733,0.373,0.4408,0.4407,0.4406,0.4406,0,0.3065,0.3151,0.3252,0.3307,0.344,0.3515,0.361,0.3776,0.3863,0.4041,0.4097,0.427,0.4347,0.4431,0.447,0.4511,0.4518,0.4557,0.4193,0.4163,0.4003,0.3949,0.4623,0.4623,0.4623,0.4623,0.4624,0,0.3141,0.3227,0.3286,0.3369,0.348,0.3556,0.3707,0.3808,0.3939,0.4023,0.4166,0.4218,0.4374,0.4395,0.4451,0.428,0.4494,0.4179,0.4114,0.3999,0.3949,0.4538,0.4529,0.462,0.4621,0.4621,0.4622,0,0.3228,0.3277,0.3391,0.3495,0.3536,0.3633,0.3762,0.3832,0.3954,0.4057,0.4111,0.42,0.4148,0.4196,0.4254,0.4168,0.4107,0.4003,0.3789,0.3694,0.3737,0.3733,0.3586,0.3571,0.3558,0.3547,0.3538,0,0.3298,0.3368,0.3486,0.3526,0.3585,0.3706,0.3768,0.388,0.3911,0.4016,0.4019,0.4002,0.3889,0.372,0.362,0.3487,0.3729,0.3204,0.3225,0.3679,0.3634,0.3649,0.3661,0.3056,0.3043,0.3034,0.3026,0,0.339,0.3435,0.3481,0.3582,0.3649,0.3688,0.3759,0.3764,0.3844,0.3808,0.3692,0.3601,0.343,0.313,0.2916,0.2861,0.3195,0.2974,0.3578,0.327,0.3151,0.3114,0.3152,0.2937,0.2946,0.2952,0.2957,0.2961,0.3428,0.3453,0.3506,0.354,0.3609,0.3568,0.3494,0.3483,0.3391,0.3223,0.3293,0.3004,0.2989,0.2444,0.233,0.2245,0.2452,0.2424,0.2471,0.2525,0.2402,0.2259,0.1855,0.1857,0.1859,0.1861,0.1863,0,0.3395,0.3385,0.3437,0.3411,0.3351,0.346,0.3367,0.3177,0.2883,0.2833,0.2608,0.2228,0.1973,0.198,0.1717,0.1608,0.1788,0.1541,0.1865,0.1948,0.2023,0.1893,0.1202,0.12,0.1198,0.1196,0,0,0.3369,0.3322,0.3268,0.3084,0.3077,0.2869,0.2729,0.2511,0.2371,0.2012,0.1822,0.1847,0.1896,0.1539,0.1472,0.1315,0.1641,0.1245,0.178,0.2248,0.2322,0.2521,0.2404,0,0,0,0,0]},{"header":{"parameterUnit":"m.s-1","parameterCategory":2,"la1":30.2991,"la2":30.254,"lo1":-89.0895,"lo2":-89.0444,"dy":0.0017,"dx":0.0017,"nx":28,"ny":28,"refTime":"2025-06-07T03:00:00:Z","depth":"2","parameterNumber":3,"parameterNumberName":"V-component_of_CURRENTS"},"data":[0,0,0,0,0,0,0,0,0,0,0,0,0,0,0,0,0,0,0,0,0,0,0,0,0,0,0,0,0,0,0,0,0,0,0,0,0,0,0,0,0,0,0,0,0,0,0,0,0,0,0,0,0,0,0,0,0,0,-0.027,-0.027,0,-0.0235,-0.0234,-0.0233,-0.0212,-0.0213,-0.0214,-0.0215,0.0013,0.002,0.0027,0,0,0,0,0,0,0,0,0,0,0,0,0,-0.0249,-0.0249,-0.027,-0.027,-0.0271,-0.0235,-0.0234,-0.0233,-0.0212,-0.0213,-0.0214,-0.0215,0.0011,0.0019,0.0027,0,0,0,0,0,0,0,0,0,0,0,0,0,-0.0232,-0.0249,-0.027,-0.0263,-0.0263,-0.0236,-0.0234,-0.0232,-0.0212,-0.0213,-0.0214,-0.0215,0.0008,0.0018,0.0028,0.0114,0,0,0.0059,0.0064,0,0,0,0,0,0,0,0,-0.0233,-0.0231,-0.0264,-0.0264,-0.0264,-0.0238,-0.0144,-0.011,-0.0212,-0.0221,-0.0215,-0.0216,-0.0058,-0.0042,-0.0023,0.0125,0.0135,0.006,0.0067,0.0071,0.0074,0,0,0,0,0,0,0,-0.0234,-0.0233,-0.0247,-0.0265,-0.0264,-0.0239,-0.0237,-0.0137,-0.0123,-0.0221,-0.0222,-0.0232,-0.0055,-0.0033,-0.0017,0.0138,0.006,0.0069,0.0075,0.0079,0.046,0.0464,0,0,0,0,0,0,-0.026,-0.0234,-0.0248,-0.0247,-0.0261,-0.0239,-0.0237,-0.0237,-0.0128,-0.0117,-0.0231,-0.0232,-0.0049,-0.0029,-0.0008,0.0182,0.0071,0.008,0.0086,0.0457,0.0461,0.0466,0,0,0,0,0,0,-0.0259,-0.0261,-0.025,-0.0248,-0.0246,-0.024,-0.0239,-0.0236,-0.0208,-0.014,-0.0123,-0.0208,-0.005,-0.0023,0.0131,0.0187,0.0085,0.0094,0.0452,0.0458,0.0464,0.0511,0,0,0,0,0,0,-0.0258,-0.026,-0.0258,-0.0249,-0.0247,-0.0229,-0.0239,-0.0235,-0.0218,-0.0217,-0.0113,-0.0095,-0.0048,0.0116,0.0142,0.02,0.0102,0.0447,0.0455,0.0462,0.0504,0.0518,0.0529,0,0,0,0,0,-0.0257,-0.0263,-0.0257,-0.0259,-0.0247,-0.0229,-0.0223,-0.0217,-0.0216,-0.0195,-0.0093,-0.0097,0.018,0.0129,0.0158,0.0219,0.0443,0.0452,0.0461,0.0498,0.0515,0.0529,0,0,0,0,0,0,-0.0269,-0.0261,-0.0255,-0.0262,-0.0243,-0.0229,-0.0228,-0.0207,-0.0116,-0.0102,-0.0028,0.0002,0.0164,0.0192,0.0133,0.0354,0.0305,0.032,0.0323,0.034,0.0352,0.0354,0.0111,0,0,0,0,0,-0.0267,-0.0256,-0.0249,-0.025,-0.0251,-0.0229,-0.0219,-0.0203,-0.0137,-0.0102,-0.0023,0.0083,0.0223,0.0278,0.0393,0.0513,0.0481,0.0568,0.058,0.059,0.0615,0.0618,0.0631,0.0495,0.0495,0.0495,0,0,-0.0274,-0.027,-0.0264,-0.0249,-0.0243,-0.0199,-0.0223,-0.0206,-0.0136,-0.0083,0.0046,0.0147,0.0274,0.0424,0.0492,0.0449,0.0606,0.0602,0.0609,0.0629,0.0628,0.0641,0.0652,0.0501,0.05,0.0499,0,0,-0.0278,-0.028,-0.0265,-0.0238,-0.022,-0.0188,-0.0178,-0.0139,-0.0098,0.0037,0.0118,0.0248,0.0418,0.0522,0.0601,0.0752,0.0691,0.0783,0.083,0.0832,0.0841,0.0849,0.0775,0.0776,0.0764,0.0764,0.0764,0,-0.0284,-0.0256,-0.0259,-0.0227,-0.0193,-0.0175,-0.0125,-0.0068,0.0032,0.0108,0.0084,0.039,0.0469,0.0692,0.0744,0.0778,0.0742,0.0754,0.0841,0.0849,0.0857,0.0779,0.078,0.0768,0.0767,0.0767,0.0767,0,-0.0257,-0.0226,-0.0223,-0.0153,-0.0112,-0.0074,-0.0005,0.0071,0.0127,0.0202,0.0405,0.0516,0.0696,0.0734,0.0794,0.0928,0.087,0.0866,0.0784,0.0872,0.0785,0.0785,0.0772,0.0771,0.077,0.0769,0,0,-0.0282,-0.0213,-0.0208,-0.0147,-0.0064,-0.0019,0.0103,0.0235,0.0352,0.0437,0.0592,0.0795,0.0841,0.0935,0.1006,0.0999,0.0997,0.0955,0.0953,0.0847,0.0943,0.0872,0.0863,0.0997,0.0999,0.1,0.0839,0,-0.0252,-0.0174,-0.0137,-0.0018,0.004,0.0119,0.0247,0.038,0.0487,0.0643,0.0747,0.0936,0.0922,0.1025,0.1025,0.1053,0.101,0.1038,0.0906,0.0902,0.0801,0.0868,0.0833,0.0687,0.0838,0.0838,0.0838,0,-0.0214,-0.0162,-0.0058,0.0091,0.0122,0.0218,0.0434,0.0554,0.0766,0.085,0.1008,0.1098,0.1217,0.1148,0.1143,0.116,0.1065,0.1008,0.1,0.0928,0.0834,0.0641,0.068,0.0837,0.0837,0.0837,0.0837,0,-0.0186,-0.0088,0.0006,0.0053,0.0215,0.0309,0.0426,0.0636,0.078,0.1002,0.1113,0.1242,0.1323,0.1252,0.1171,0.1159,0.108,0.1037,0.086,0.0849,0.0796,0.0779,0.0979,0.0979,0.098,0.098,0.0981,0,-0.0131,-0.0055,0.003,0.0096,0.026,0.0357,0.058,0.0715,0.0933,0.1126,0.1234,0.137,0.1351,0.1328,0.1201,0.1038,0.1094,0.0884,0.0829,0.0807,0.0795,0.0924,0.092,0.0974,0.0975,0.0977,0.0978,0,-0.009,-0.0042,0.0076,0.022,0.0287,0.0415,0.0671,0.084,0.1012,0.1254,0.1335,0.1472,0.1421,0.1335,0.1206,0.1076,0.0928,0.0838,0.0783,0.0726,0.0663,0.0664,0.0612,0.0609,0.0606,0.0604,0.0602,0,-0.0066,-0.0005,0.0154,0.0261,0.0338,0.0533,0.0699,0.0891,0.1061,0.131,0.1421,0.1462,0.148,0.1252,0.1047,0.0788,0.0824,0.0603,0.0591,0.0688,0.0638,0.0643,0.0648,0.05,0.0497,0.0495,0.0494,0,-0.0014,0.004,0.0145,0.037,0.0533,0.0707,0.0928,0.105,0.1276,0.1411,0.1545,0.1558,0.1367,0.1131,0.0828,0.0662,0.0653,0.0547,0.0697,0.0614,0.0574,0.0528,0.0538,0.0475,0.0477,0.0478,0.0479,0.048,0.0031,0.0122,0.0295,0.0519,0.069,0.0883,0.1005,0.1179,0.1368,0.1526,0.1538,0.1495,0.1318,0.0864,0.0646,0.043,0.0441,0.0363,0.0373,0.0385,0.0417,0.0377,0.0241,0.0241,0.0242,0.0242,0.0242,0,0.0162,0.0286,0.0461,0.071,0.0891,0.0966,0.1172,0.1241,0.1374,0.1459,0.1481,0.1235,0.0996,0.0794,0.0426,0.0225,0.0237,0.018,0.0252,0.0269,0.0285,0.0317,0.0111,0.0111,0.011,0.011,0,0,0.0248,0.0468,0.0569,0.0873,0.1012,0.1163,0.1237,0.1293,0.134,0.1332,0.1287,0.1238,0.1014,0.0741,0.0489,0.0297,0.0328,0.0252,0.0366,0.0493,0.0512,0.0385,0.0452,0,0,0,0,0]}],[{"header":{"parameterUnit":"m.s-1","parameterCategory":2,"la1":30.2991,"la2":30.254,"lo1":-89.0895,"lo2":-89.0444,"dy":0.0017,"dx":0.0017,"nx":28,"ny":28,"refTime":"2025-06-07T03:00:00:Z","depth":"4","parameterNumber":2,"parameterNumberName":"U-component_of_CURRENTS"},"data":[0,0,0,0,0,0,0,0,0,0,0,0,0,0,0,0,0,0,0,0,0,0,0,0,0,0,0,0,0,0,0,0,0,0,0,0,0,0,0,0,0,0,0,0,0,0,0,0,0,0,0,0,0,0,0,0,0,0,0.0028,0.0028,0,-0.0024,-0.0024,-0.0025,0.0017,0.0019,0.0021,0.0023,0.0089,0.0089,0.0089,0,0,0,0,0,0,0,0,0,0,0,0,0,0.0222,0.0218,0.0028,0.0028,0.0027,-0.0024,-0.0024,-0.0025,0.0017,0.0019,0.0021,0.0023,0.0089,0.0089,0.0089,0,0,0,0,0,0,0,0,0,0,0,0,0,0.0151,0.0216,0.0029,0.0042,0.0042,-0.0023,-0.0024,-0.0025,0.0017,0.0019,0.0022,0.0024,0.0089,0.0089,0.0089,0.0038,0,0,0.009,0.009,0,0,0,0,0,0,0,0,0.0155,0.0144,0.004,0.0041,0.0041,0.0006,0.0068,0.0002,0.0016,0.0027,0.0023,0.0026,0.007,0.0072,0.0055,0.0041,0.0044,0.009,0.009,0.009,0.009,0,0,0,0,0,0,0,0.0159,0.0146,0.0008,0.0039,0.004,0.007,0.0062,0.0056,0.0037,0.0026,0.0029,0.0022,0.0072,0.0055,0.0057,0.0045,0.009,0.009,0.009,0.009,0.0237,0.0241,0,0,0,0,0,0,0.0158,0.015,0.001,0.0007,0.0105,0.0064,0.0055,0.0015,0.0034,0.0039,0.0019,0.0024,0.0053,0.0057,0.006,0.0262,0.009,0.009,0.0091,0.0234,0.0238,0.0242,0,0,0,0,0,0,0.0162,0.0144,0.0012,0.008,0.0065,0.0057,0.0012,0.0012,0.0048,0.0028,0.0035,0.0061,0.0055,0.006,0.0121,0.0255,0.0091,0.0091,0.0229,0.0235,0.024,0.0499,0,0,0,0,0,0,0.0167,0.0145,0.0127,0.0078,0.0061,0.0004,0.0009,0.0009,0.0036,0.0043,0.0065,0.007,0.0058,0.0121,0.0121,0.0253,0.0091,0.0224,0.0232,0.0238,0.0486,0.0513,0.0536,0,0,0,0,0,0.0173,0.0122,0.0125,0.011,0.003,0.0004,-0.0001,0.0004,0.0036,0.0049,0.0091,0.0073,0.0168,0.0123,0.0123,0.0258,0.0221,0.023,0.0238,0.0474,0.0507,0.0535,0,0,0,0,0,0,0.0173,0.012,0.0123,0.0052,0.0051,0.0012,0.0011,0.0031,0.0066,0.0099,0.0097,0.0105,0.0215,0.0179,0.013,0.0318,0.02,0.0209,0.038,0.0411,0.0436,0.0467,0.0091,0,0,0,0,0,0.0167,0.0127,0.0098,0.0046,0.0051,0.0048,0.0045,0.0064,0.0078,0.0098,0.0144,0.0188,0.0235,0.0278,0.0294,0.0378,0.0278,0.0469,0.0494,0.0516,0.054,0.0489,0.0512,0.027,0.027,0.027,0,0,0.015,0.0116,0.0092,0.0048,0.0045,0.008,0.0054,0.0068,0.0151,0.0099,0.0247,0.0267,0.027,0.0386,0.0435,0.0387,0.0525,0.0527,0.0546,0.0558,0.05,0.0523,0.0544,0.0276,0.0275,0.0274,0,0,0.0115,0.0075,0.0059,0.0075,0.009,0.0107,0.0131,0.0164,0.0236,0.035,0.0358,0.0455,0.0531,0.0578,0.0602,0.0762,0.0647,0.079,0.0968,0.092,0.0939,0.0954,0.0822,0.0824,0.082,0.0821,0.0821,0,0.0117,0.008,0.0054,0.0074,0.0115,0.014,0.0196,0.0257,0.0333,0.0421,0.044,0.061,0.063,0.0763,0.0862,0.0828,0.0742,0.086,0.0953,0.0966,0.0978,0.0838,0.0837,0.0834,0.0833,0.0831,0.083,0,0.0094,0.0099,0.0096,0.015,0.0192,0.0231,0.0329,0.0439,0.0558,0.0636,0.0824,0.086,0.0962,0.1014,0.1012,0.1142,0.103,0.0975,0.0877,0.1018,0.086,0.0855,0.0854,0.0849,0.0845,0.0841,0,0,0.0037,0.0077,0.0089,0.0153,0.0253,0.0288,0.0464,0.0617,0.0749,0.0901,0.1053,0.123,0.1267,0.1295,0.1303,0.132,0.1349,0.1232,0.1222,0.1101,0.1183,0.1155,0.1143,0.1315,0.1317,0.1318,0.1026,0,0.0056,0.0099,0.0141,0.0266,0.0319,0.0446,0.0602,0.0763,0.0915,0.1069,0.1184,0.1312,0.1364,0.1427,0.1472,0.136,0.1352,0.1429,0.1063,0.1051,0.1013,0.1145,0.1323,0.102,0.1018,0.1017,0.1016,0,0.0057,0.0088,0.0188,0.0354,0.0398,0.0516,0.0778,0.0917,0.1134,0.1247,0.1412,0.1458,0.1569,0.155,0.1485,0.1531,0.1411,0.1312,0.1296,0.1184,0.1018,0.0856,0.1003,0.1004,0.1005,0.1006,0.1007,0,0.0045,0.015,0.024,0.0291,0.047,0.0615,0.0762,0.1,0.1138,0.1348,0.1409,0.1549,0.1575,0.1512,0.1382,0.1437,0.1193,0.12,0.1043,0.1031,0.1018,0.1004,0.1129,0.1129,0.113,0.1131,0.1132,0,0.0065,0.0136,0.0253,0.0309,0.0486,0.0634,0.0862,0.1032,0.123,0.1348,0.149,0.1523,0.1578,0.146,0.135,0.1163,0.1151,0.1098,0.0994,0.1126,0.1129,0.1009,0.0999,0.112,0.1122,0.1124,0.1126,0,0.0048,0.0106,0.021,0.0399,0.0484,0.0626,0.0902,0.1044,0.1217,0.1345,0.1401,0.1497,0.1414,0.1337,0.1163,0.1092,0.0902,0.0806,0.0879,0.0775,0.0778,0.0785,0.068,0.0677,0.0675,0.0674,0.0672,0,0.0045,0.0083,0.0252,0.0334,0.0442,0.0654,0.0805,0.1044,0.1134,0.1284,0.1277,0.1305,0.134,0.1032,0.0985,0.0763,0.0752,0.0606,0.0855,0.0843,0.075,0.076,0.0769,0.0669,0.0668,0.0668,0.0667,0,0.0023,0.0074,0.015,0.0307,0.047,0.0614,0.0806,0.0875,0.1091,0.1199,0.121,0.1209,0.1097,0.1028,0.0849,0.0683,0.0711,0.0586,0.0594,0.0827,0.0827,0.0739,0.0751,0.066,0.0661,0.0661,0.0662,0,0.0008,0.0038,0.0129,0.0301,0.0437,0.0549,0.0678,0.079,0.0918,0.1091,0.1052,0.1052,0.1103,0.0966,0.0753,0.0667,0.0725,0.0691,0.0695,0.0702,0.0856,0.0868,0.0651,0,0,0,0,0,0.0002,0.0035,0.0132,0.029,0.0407,0.0527,0.0651,0.0754,0.0914,0.0931,0.1035,0.0955,0.0891,0.0828,0.0751,0.0718,0.0664,0.0616,0.0615,0.0619,0.0627,0.0813,0,0,0,0,0,0,-0.0013,0.004,0.0096,0.0228,0.037,0.0502,0.0609,0.0724,0.072,0.0872,0.082,0.092,0.0815,0.0967,0.0757,0.0734,0.0712,0.0615,0.0611,0.0614,0.0622,0.0628,0.0822,0,0,0,0,0]},{"header":{"parameterUnit":"m.s-1","parameterCategory":2,"la1":30.2991,"la2":30.254,"lo1":-89.0895,"lo2":-89.0444,"dy":0.0017,"dx":0.0017,"nx":28,"ny":28,"refTime":"2025-06-07T03:00:00:Z","depth":"4","parameterNumber":3,"parameterNumberName":"V-component_of_CURRENTS"},"data":[0,0,0,0,0,0,0,0,0,0,0,0,0,0,0,0,0,0,0,0,0,0,0,0,0,0,0,0,0,0,0,0,0,0,0,0,0,0,0,0,0,0,0,0,0,0,0,0,0,0,0,0,0,0,0,0,0,0,0.039,0.0391,0,0.0457,0.0458,0.0459,0.0539,0.054,0.0542,0.0543,0.0394,0.0388,0.0383,0,0,0,0,0,0,0,0,0,0,0,0,0,0.0255,0.0257,0.039,0.0391,0.0392,0.0457,0.0458,0.0459,0.0538,0.054,0.0542,0.0544,0.0395,0.0389,0.0383,0,0,0,0,0,0,0,0,0,0,0,0,0,0.0315,0.0258,0.039,0.0441,0.0447,0.0457,0.0458,0.0459,0.0538,0.054,0.0542,0.0544,0.0397,0.039,0.0382,0.0289,0,0,0.0357,0.0354,0,0,0,0,0,0,0,0,0.0312,0.032,0.0433,0.0438,0.0444,0.0494,0.0356,0.0392,0.0538,0.0501,0.0543,0.0546,0.0407,0.0398,0.0406,0.0282,0.0276,0.0357,0.0352,0.0348,0.0346,0,0,0,0,0,0,0,0.0307,0.0317,0.0414,0.0434,0.044,0.0435,0.0447,0.0364,0.0435,0.0504,0.0511,0.0521,0.0408,0.0414,0.0402,0.0274,0.0357,0.035,0.0345,0.0342,0.0101,0.0099,0,0,0,0,0,0,0.0306,0.0313,0.0412,0.0417,0.0384,0.0437,0.0449,0.0474,0.0441,0.0441,0.0519,0.0525,0.0426,0.0412,0.0397,0.037,0.0349,0.0341,0.0336,0.0102,0.01,0.0099,0,0,0,0,0,0,0.0303,0.0314,0.041,0.0367,0.0379,0.0438,0.0464,0.0474,0.0521,0.0455,0.0451,0.0561,0.0427,0.0408,0.0363,0.0362,0.0337,0.033,0.0104,0.0102,0.01,0.026,0,0,0,0,0,0,0.0299,0.0313,0.0337,0.0368,0.0382,0.0439,0.0462,0.0474,0.0522,0.0531,0.0487,0.0475,0.0428,0.0376,0.0355,0.035,0.0324,0.0106,0.0103,0.01,0.0257,0.0264,0.0269,0,0,0,0,0,0.0294,0.0329,0.0337,0.035,0.0411,0.044,0.0447,0.0492,0.0523,0.0542,0.0521,0.0478,0.034,0.0369,0.0345,0.0338,0.0108,0.0104,0.0101,0.0254,0.0262,0.0269,0,0,0,0,0,0,0.0308,0.0341,0.0352,0.0403,0.0424,0.0455,0.0487,0.0509,0.0513,0.0532,0.0471,0.0455,0.0406,0.0336,0.0369,0.025,0.0209,0.02,0.0334,0.034,0.0346,0.0392,0.0317,0,0,0,0,0,0.0311,0.0338,0.0366,0.0408,0.0424,0.0456,0.0479,0.0511,0.0516,0.0527,0.05,0.0441,0.0361,0.0333,0.0256,0.0199,0.0122,0.0167,0.0173,0.018,0.0195,0.0049,0.0045,0.0087,0.0087,0.0087,0,0,0.0335,0.0352,0.0374,0.041,0.0437,0.0472,0.0478,0.0531,0.0565,0.0497,0.0536,0.0464,0.0348,0.0297,0.0266,0.0251,0.0133,0.0175,0.0183,0.0193,0.0045,0.0041,0.0038,0.0084,0.0085,0.0085,0,0,0.0374,0.0405,0.0432,0.0455,0.0495,0.051,0.0532,0.0577,0.0605,0.0614,0.056,0.0499,0.0415,0.0334,0.0274,0.0253,0.0167,0.0219,0.0298,0.0157,0.0154,0.015,0.0093,0.0083,0.0228,0.0228,0.0228,0,0.0387,0.044,0.0446,0.0478,0.0515,0.0533,0.0583,0.0599,0.0629,0.0634,0.0647,0.0503,0.0426,0.0315,0.0335,0.027,0.0208,0.0296,0.0171,0.0165,0.0158,0.01,0.0086,0.0235,0.0235,0.0234,0.0233,0,0.0446,0.0493,0.0519,0.0559,0.0591,0.0644,0.0667,0.0708,0.0741,0.0737,0.0679,0.0576,0.0495,0.0442,0.0402,0.0299,0.028,0.0199,0.0172,0.0164,0.0103,0.0086,0.0246,0.0243,0.0241,0.0239,0,0,0.0468,0.0538,0.0555,0.0599,0.0649,0.0692,0.0741,0.0771,0.0804,0.0788,0.0772,0.0663,0.0622,0.0548,0.0451,0.0345,0.0274,0.0289,0.0278,0.0272,0.0031,0.0111,0.0099,0.0178,0.0174,0.0172,0.0027,0,0.0512,0.0572,0.0616,0.0716,0.0751,0.0803,0.0853,0.0882,0.0878,0.0861,0.0736,0.0683,0.0649,0.0617,0.0506,0.0299,0.0229,0.0325,0.0005,-0.0003,0.0098,0.008,0.0161,0.0014,0.001,0.0007,0.0005,0,0.056,0.059,0.0687,0.0791,0.0824,0.0931,0.1015,0.1051,0.1006,0.0985,0.0901,0.0799,0.0655,0.0613,0.0325,0.0394,0.0263,0.0113,0.0101,0.0108,0.0044,0.0001,-0.0028,-0.0025,-0.0023,-0.0021,-0.0019,0,0.0553,0.0656,0.0742,0.0782,0.0895,0.1019,0.1107,0.1128,0.1127,0.1072,0.1009,0.0847,0.0731,0.0528,0.0308,0.0306,-0.0025,-0.0095,-0.014,-0.0135,-0.023,-0.0226,-0.0279,-0.0279,-0.0279,-0.0278,-0.0278,0,0.0574,0.0644,0.0792,0.0855,0.1026,0.1095,0.1241,0.1291,0.1252,0.1177,0.1097,0.093,0.0701,0.0488,0.0305,0.0061,-0.002,-0.0112,-0.0179,-0.0154,-0.014,-0.0239,-0.0233,-0.0284,-0.0282,-0.0281,-0.028,0,0.057,0.0631,0.0763,0.0952,0.1046,0.1195,0.1369,0.1391,0.1378,0.1254,0.1228,0.0978,0.0712,0.0512,0.0152,0.0057,-0.0189,-0.0244,-0.0125,-0.0186,-0.0198,-0.0183,-0.0333,-0.0332,-0.0331,-0.033,-0.0329,0,0.0567,0.0626,0.0874,0.0982,0.1128,0.1326,0.1425,0.1482,0.1404,0.1219,0.1073,0.0872,0.0692,0.0279,0.0075,-0.0176,-0.0214,-0.0265,-0.0276,-0.0159,-0.0211,-0.0197,-0.0183,-0.0327,-0.0327,-0.0327,-0.0326,0,0.0551,0.067,0.0798,0.1028,0.1213,0.1317,0.1423,0.1363,0.1293,0.1268,0.0948,0.0777,0.0482,0.0218,0.0107,-0.012,-0.02,-0.0254,-0.026,-0.0271,-0.0155,-0.0203,-0.0191,-0.0322,-0.0323,-0.0323,-0.0323,0,0.0588,0.0677,0.0848,0.1053,0.1205,0.1218,0.1322,0.1222,0.1173,0.0959,0.0832,0.0589,0.0461,0.0237,0.005,-0.0049,-0.0115,-0.0138,-0.0151,-0.0157,-0.0041,0.0138,0.0007,0,0,0,0,0,0.0589,0.0648,0.0824,0.1002,0.1118,0.1198,0.1213,0.1238,0.1147,0.0941,0.0902,0.064,0.0393,0.022,0.0125,0.004,-0.0135,-0.0073,-0.0167,-0.03,-0.0305,-0.0188,0,0,0,0,0,0,0.0585,0.0719,0.0782,0.0838,0.0944,0.1032,0.1045,0.103,0.0877,0.0809,0.0652,0.0643,0.0371,0.0455,0.0125,0.0086,0.0021,-0.0179,-0.018,-0.0298,-0.0302,-0.0305,-0.0187,0,0,0,0,0]}]]